Regional Weather Roundup
Issued by NWS

Home | Current Version | Previous Version | Graphics & Text | Print | Product List | Glossary On
Versions: 1 2 3 4 5 6 7 8 9 10 11 12 13 14 15 16 17 18 19 20 21 22 23 24 25 26 27 28 29 30 31 32 33 34 35 36 37 38 39 40 41 42 43 44 45 46 47 48 49 50
000
ASUS43 KTOP 280059
RWRKS

WEATHER ROUNDUP FOR KANSAS
NATIONAL WEATHER SERVICE GOODLAND KS
800 PM CDT WED MAY 27 2015

NOTE:  "FAIR" INDICATES FEW OR NO CLOUDS BELOW 12,000 FEET WITH NO
SIGNIFICANT WEATHER AND/OR OBSTRUCTIONS TO VISIBILITY.

KSZ001>006-013>018-027>032-041>047-280200-
NORTHWEST KANSAS

CITY           SKY/WX    TMP DP  RH WIND       PRES   REMARKS
GOODLAND       PTSUNNY   66  58  75 SE25G36   30.00R
HAYS           CLOUDY    70  61  73 SE22      30.01F
HILL CITY      CLOUDY    69  62  78 SE14      29.97F
RUSSELL        CLOUDY    69  65  86 CALM      30.03R
$$

KSZ061>065-074>080-084>089-280200-
SOUTHWEST KANSAS

CITY           SKY/WX    TMP DP  RH WIND       PRES   REMARKS
DODGE CITY     CLOUDY    69  62  78 SE25G33   30.01R
ELKHART          N/A     63  55  75 E8          N/A
GARDEN CITY    TSTM      62  58  86 NE25G40   30.07R FOG
GREAT BEND     CLOUDY    70  63  78 NE7       30.05R
LIBERAL        CLOUDY    70  54  56 W15       30.07R
$$

KSZ066>073-081>083-090>101-280200-
SOUTHEAST KANSAS

CITY           SKY/WX    TMP DP  RH WIND       PRES   REMARKS
CHANUTE        PTCLDY    77  65  66 E6        30.03S
COFFEYVILLE    CLEAR     77  69  76 E5        30.01S
HUTCHINSON     CLOUDY    74  64  71 E6        30.01R
NEWTON         CLOUDY    73  61  64 E7        30.04S
PARSONS        CLEAR     78  68  71 CALM      30.04R
WICHITA INTL   CLOUDY    78  64  61 SE8       30.01R
WICHITA JABRA  CLOUDY    75  64  68 SE6       30.02R
WINFIELD       CLOUDY    78  67  68 SE6       30.02R
$$

KSZ007>012-019>026-033>040-048>060-102>105-280200-
NORTHEAST KANSAS

CITY           SKY/WX    TMP DP  RH WIND       PRES   REMARKS
CONCORDIA      CLOUDY    73  60  63 SE9       30.03S
EMPORIA        MOCLDY    73  63  70 E7        30.03F
LAWRENCE       CLEAR     75  58  55 SE3       30.05S
MANHATTAN      CLOUDY    76  63  64 CALM      30.03S
OLATHE IND     CLEAR     75  55  49 SE6       30.07S
OLATHE EXE     CLEAR     75  53  46 SE5       30.06S
SALINA         CLOUDY    77  62  59 E8        30.01F
TOPEKA BILLARD MOCLDY    75  58  55 SE6       30.05S
TOPEKA FORBES  MOCLDY    75  58  55 E6        30.05S
$$



USA.gov is the U.S. government's official web portal to all federal, state and local government web resources and services.